FW8937 Weather Reports


Display with metric or nautical units.
time (UTC)temp
F
wind
direction
speed
MPH
gust
MPH
rain 1hr
in
rain 24hr
in
rain mn
in
humidity
%
barometer
mb
20240525210128 50 306 23.0 38.0 0.00 0.00 0.00 49 1010.0
20240525205627 51 252 25.0 41.0 0.00 0.00 0.00 46 1009.9
20240525205127 53 321 26.0 42.0 0.00 0.00 0.00 44 1009.7
20240525204620 57 304 15.0 42.0 0.00 0.00 0.00 37 1009.9
20240525204114 60 18 6.0 20.0 0.00 0.00 0.00 27 1009.9
20240525203608 60 350 7.0 15.0 0.00 0.00 0.00 25 1009.2
20240525203328 60 259 9.0 17.0 0.00 0.00 0.00 26 1009.1
20240525202556 60 283 11.0 19.0 0.00 0.00 0.00 25 1009.1
20240525202050 60 275 11.0 20.0 0.00 0.00 0.00 26 1009.1
20240525201809 60 333 11.0 21.0 0.00 0.00 0.00 26 1009.3
20240525201037 59 301 10.0 21.0 0.00 0.00 0.00 28 1009.3
20240525200532 59 285 8.0 18.0 0.00 0.00 0.00 27 1009.5
20240525200026 59 303 7.0 15.0 0.00 0.00 0.00 27 1009.6
20240525195741 58 355 8.0 15.0 0.00 0.00 0.00 28 1009.6
20240525195014 58 291 9.0 18.0 0.00 0.00 0.00 29 1009.7
20240525194508 58 285 9.0 18.0 0.00 0.00 0.00 28 1009.9
20240525194002 58 284 12.0 22.0 0.00 0.00 0.00 28 1010.0
20240525193718 58 236 15.0 24.0 0.00 0.00 0.00 27 1009.9
20240525192949 59 242 18.0 37.0 0.00 0.00 0.00 26 1009.6
20240525192443 60 269 16.0 37.0 0.00 0.00 0.00 24 1009.6
20240525191938 60 304 10.0 25.0 0.00 0.00 0.00 24 1009.5
20240525191432 61 224 7.0 16.0 0.00 0.00 0.00 35 1009.5
20240525190926 61 44 6.0 16.0 0.00 0.00 0.00 38 1009.3
20240525190420 61 88 5.0 17.0 0.00 0.00 0.00 35 1009.1
20240525185915 60 71 4.0 17.0 0.00 0.00 0.00 25 1009.1
20240525185408 60 22 6.0 19.0 0.00 0.00 0.00 25 1008.9
20240525184902 60 336 9.0 22.0 0.00 0.00 0.00 23 1009.1
20240525184844 59 240 11.0 22.0 0.00 0.00 0.00 23 1009.1
20240525184114 59 306 12.0 21.0 0.00 0.00 0.00 23 1008.9
20240525183602 60 252 14.0 27.0 0.00 0.00 0.00 21 1009.1
20240525182838 60 280 14.0 27.0 0.00 0.00 0.00 20 1009.1
20240525182332 60 225 11.0 25.0 0.00 0.00 0.00 21 1009.1
20240525181826 59 255 9.0 21.0 0.00 0.00 0.00 25 1009.2
20240525181320 58 235 11.0 21.0 0.00 0.00 0.00 26 1009.3
20240525180814 58 259 10.0 21.0 0.00 0.00 0.00 24 1009.3
20240525180308 58 236 13.0 30.0 0.00 0.00 0.00 25 1009.5
20240525175802 58 292 15.0 30.0 0.00 0.00 0.00 24 1009.3
20240525175521 58 250 12.0 25.0 0.00 0.00 0.00 23 1009.3
20240525174750 58 284 10.0 21.0 0.00 0.00 0.00 25 1009.3
20240525174243 59 208 7.0 21.0 0.00 0.00 0.00 24 1009.3
20240525174000 59 340 5.0 11.0 0.00 0.00 0.00 34 1009.3
20240525173232 59 243 4.0 11.0 0.00 0.00 0.00 36 1009.3
20240525173219 58 339 3.0 11.0 0.00 0.00 0.00 35 1009.5
20240525172220 58 47 4.0 10.0 0.00 0.00 0.00 40 1009.3
20240525172200 58 13 6.0 10.0 0.00 0.00 0.00 40 1009.5
20240525171217 58 35 7.0 12.0 0.00 0.00 0.00 41 1009.3
20240525170715 58 52 6.0 12.0 0.00 0.00 0.00 41 1009.5
20240525170215 58 36 5.0 12.0 0.00 0.00 0.00 40 1009.5
20240525165931 58 80 7.0 24.0 0.00 0.00 0.00 39 1009.5
20240525165214 58 25 10.0 24.0 0.00 0.00 0.00 38 1009.6
20240525164715 58 317 13.0 27.0 0.00 0.00 0.00 24 1009.6
20240525164216 58 233 17.0 30.0 0.00 0.00 0.00 24 1009.5
20240525163715 59 244 18.0 31.0 0.00 0.00 0.00 24 1009.5
20240525163215 59 294 15.0 31.0 0.00 0.00 0.00 23 1009.3
20240525162939 59 202 13.0 31.0 0.00 0.00 0.00 25 1009.5
20240525162216 59 229 14.0 31.0 0.00 0.00 0.00 24 1009.6
20240525161714 58 240 14.0 27.0 0.00 0.00 0.00 24 1009.6
20240525161214 58 304 15.0 29.0 0.00 0.00 0.00 24 1009.5
20240525160716 58 221 19.0 39.0 0.00 0.00 0.00 25 1009.7
20240525160215 58 252 18.0 39.0 0.00 0.00 0.00 23 1009.5
20240525155716 58 202 15.0 32.0 0.00 0.00 0.00 23 1009.9
20240525155215 58 212 13.0 31.0 0.00 0.00 0.00 26 1009.9
20240525154716 57 261 13.0 25.0 0.00 0.00 0.00 26 1009.7
20240525154215 57 238 13.0 25.0 0.00 0.00 0.00 26 1009.9
20240525153715 57 231 12.0 19.0 0.00 0.00 0.00 27 1010.0
20240525153214 56 309 9.0 19.0 0.00 0.00 0.00 30 1010.1
20240525152716 56 334 5.0 19.0 0.00 0.00 0.00 28 1009.9
20240525152214 56 143 2.0 7.0 0.00 0.00 0.00 38 1010.2
20240525151714 56 69 3.0 9.0 0.00 0.00 0.00 41 1010.2
20240525151214 57 53 3.0 10.0 0.00 0.00 0.00 40 1010.2
20240525150714 57 107 3.0 10.0 0.00 0.00 0.00 39 1010.5
20240525150442 58 131 3.0 9.0 0.00 0.00 0.00 39 1010.5
20240525145937 58 167 4.0 10.0 0.00 0.00 0.00 39 1010.4
20240525145212 58 69 4.0 10.0 0.00 0.00 0.00 39 1010.2
20240525144712 58 88 5.0 9.0 0.00 0.00 0.00 37 1010.2
20240525144212 57 69 5.0 8.0 0.00 0.00 0.00 38 1010.2
20240525143713 57 73 4.0 8.0 0.00 0.00 0.00 38 1010.2
20240525143434 56 96 3.0 8.0 0.00 0.00 0.00 38 1010.2
20240525142930 56 90 3.0 7.0 0.00 0.00 0.00 40 1010.4
20240525142439 56 80 3.0 6.0 0.00 0.00 0.00 39 1010.4
20240525141708 55 77 3.0 9.0 0.00 0.00 0.00 38 1010.4
20240525141208 55 41 3.0 9.0 0.00 0.00 0.00 37 1010.2
20240525140934 54 83 3.0 6.0 0.00 0.00 0.00 37 1010.2
20240525140208 53 104 2.0 4.0 0.00 0.00 0.00 36 1010.2
20240525135709 53 104 2.0 4.0 0.00 0.00 0.00 40 1010.4
20240525135208 53 74 3.0 5.0 0.00 0.00 0.00 40 1010.4
20240525134707 52 74 3.0 5.0 0.00 0.00 0.00 39 1010.5
20240525134424 52 82 2.0 4.0 0.00 0.00 0.00 40 1010.5
20240525133706 51 61 2.0 4.0 0.00 0.00 0.00 40 1010.5
20240525133204 51 61 1.0 5.0 0.00 0.00 0.00 39 1010.4
20240525133146 51 61 2.0 5.0 0.00 0.00 0.00 40 1010.5
20240525132206 51 55 2.0 5.0 0.00 0.00 0.00 41 1010.5
20240525131705 50 74 2.0 6.0 0.00 0.00 0.00 38 1010.5
20240525131204 50 355 2.0 6.0 0.00 0.00 0.00 37 1010.4
20240525130704 49 244 3.0 8.0 0.00 0.00 0.00 36 1010.5
20240525130421 49 253 3.0 8.0 0.00 0.00 0.00 37 1010.4
20240525125659 49 264 2.0 6.0 0.00 0.00 0.00 37 1010.5
20240525125411 49 288 1.0 3.0 0.00 0.00 0.00 37 1010.4
20240525124915 49 285 3.0 6.0 0.00 0.00 0.00 37 1010.4
20240525124141 49 255 4.0 7.0 0.00 0.00 0.00 38 1010.5
20240525123635 49 255 5.0 13.0 0.00 0.00 0.00 37 1010.5
20240525123350 48 226 4.0 14.0 0.00 0.00 0.00 37 1010.4
20240525122623 48 241 4.0 14.0 0.00 0.00 0.00 36 1010.5
20240525122117 48 193 7.0 15.0 0.00 0.00 0.00 37 1010.4
20240525121831 48 223 8.0 15.0 0.00 0.00 0.00 37 1010.5
20240525121105 48 213 6.0 12.0 0.00 0.00 0.00 37 1010.6
20240525120559 48 230 7.0 17.0 0.00 0.00 0.00 37 1010.4
20240525120053 48 242 8.0 17.0 0.00 0.00 0.00 38 1010.5
20240525115546 48 198 7.0 14.0 0.00 0.00 0.00 38 1010.5
20240525115042 48 205 7.0 16.0 0.00 0.00 0.00 38 1010.5
20240525114542 48 187 9.0 16.0 0.00 0.00 0.00 38 1010.5
20240525114041 47 204 10.0 18.0 0.00 0.00 0.00 39 1010.4
20240525113806 47 296 10.0 18.0 0.00 0.00 0.00 39 1010.2
20240525113305 47 229 10.0 17.0 0.00 0.00 0.00 41 1010.4
20240525112541 46 205 8.0 17.0 0.00 0.00 0.00 42 1010.4
20240525112043 46 170 7.0 16.0 0.00 0.00 0.00 41 1010.4
20240525111542 45 209 7.0 16.0 0.00 0.00 0.00 43 1010.5
20240525111042 45 221 7.0 15.0 0.00 0.00 0.00 43 1010.5
20240525110542 44 197 7.0 12.0 0.00 0.00 0.00 44 1010.6
20240525110245 43 202 4.0 11.0 0.00 0.00 0.00 47 1010.8
20240525110133 44 198 6.0 12.0 0.00 0.00 0.00 45 1010.8
20240525105040 42 215 4.0 11.0 0.00 0.00 0.00 48 1010.8
20240525104539 42 167 6.0 13.0 0.00 0.00 0.00 49 1010.9
20240525104037 42 186 7.0 13.0 0.00 0.00 0.00 50 1010.8
20240525103538 41 173 7.0 12.0 0.00 0.00 0.00 51 1010.8
20240525103037 41 207 7.0 12.0 0.00 0.00 0.00 51 1010.9
20240525102539 41 196 6.0 10.0 0.00 0.00 0.00 52 1010.9
20240525102038 41 196 7.0 10.0 0.00 0.00 0.00 52 1011.0
20240525101538 40 194 7.0 10.0 0.00 0.00 0.00 52 1010.9
20240525101039 40 200 7.0 10.0 0.00 0.00 0.00 53 1010.9
20240525100538 40 186 7.0 10.0 0.00 0.00 0.00 53 1011.0
20240525100038 40 196 8.0 10.0 0.00 0.00 0.00 54 1011.0
20240525095804 39 202 8.0 10.0 0.00 0.00 0.00 54 1011.0
20240525095039 39 200 6.0 9.0 0.00 0.00 0.00 55 1011.0
20240525094538 39 196 6.0 9.0 0.00 0.00 0.00 55 1011.2
20240525094039 39 213 6.0 8.0 0.00 0.00 0.00 55 1011.2
20240525093539 40 202 6.0 9.0 0.00 0.00 0.00 56 1011.2
20240525093039 40 223 7.0 10.0 0.00 0.00 0.00 55 1011.4
20240525092807 40 215 7.0 10.0 0.00 0.00 0.00 55 1011.4
20240525092038 40 200 6.0 9.0 0.00 0.00 0.00 55 1011.5
20240525091539 40 200 6.0 8.0 0.00 0.00 0.00 54 1011.5
20240525091255 41 235 4.0 7.0 0.00 0.00 0.00 53 1011.7
20240525091138 40 209 5.0 8.0 0.00 0.00 0.00 53 1011.5
20240525090039 41 238 2.0 7.0 0.00 0.00 0.00 53 1011.7
20240525085538 41 190 1.0 3.0 0.00 0.00 0.00 53 1011.7
20240525085038 41 190 1.0 4.0 0.00 0.00 0.00 53 1011.7
20240525084539 41 191 2.0 7.0 0.00 0.00 0.00 53 1011.8
20240525084039 41 294 3.0 7.0 0.00 0.00 0.00 52 1011.9
20240525083535 42 252 3.0 5.0 0.00 0.00 0.00 52 1011.9
20240525083035 42 298 3.0 5.0 0.00 0.00 0.00 53 1012.1
20240525082535 42 298 4.0 7.0 0.00 0.00 0.00 52 1011.9
20240525082036 42 298 4.0 7.0 0.00 0.00 0.00 52 1012.1
20240525081535 42 302 5.0 8.0 0.00 0.00 0.00 52 1012.2
20240525081302 42 309 5.0 8.0 0.00 0.00 0.00 52 1012.3
20240525080535 42 259 5.0 7.0 0.00 0.00 0.00 52 1012.5
20240525080035 42 284 5.0 8.0 0.00 0.00 0.00 51 1012.5
20240525075535 42 294 6.0 8.0 0.00 0.00 0.00 51 1012.6
20240525075035 42 295 6.0 8.0 0.00 0.00 0.00 51 1012.6
20240525074531 42 292 5.0 8.0 0.00 0.00 0.00 51 1012.7
20240525074301 42 294 5.0 8.0 0.00 0.00 0.00 51 1012.8
20240525073750 42 299 4.0 7.0 0.00 0.00 0.00 51 1012.8
20240525073250 42 297 4.0 6.0 0.00 0.00 0.00 51 1013.0
20240525072524 43 285 4.0 6.0 0.00 0.00 0.00 50 1013.1
20240525072018 43 284 4.0 6.0 0.00 0.00 0.00 50 1013.2
20240525071512 43 282 4.0 6.0 0.00 0.00 0.00 50 1013.5
20240525071232 44 257 3.0 4.0 0.00 0.00 0.00 49 1013.5
20240525070501 44 255 3.0 4.0 0.00 0.00 0.00 49 1013.6
20240525065953 44 246 3.0 4.0 0.00 0.00 0.00 48 1013.8
20240525065448 45 207 3.0 5.0 0.00 0.00 0.00 48 1013.8
20240525065204 45 185 4.0 8.0 0.00 0.00 0.00 47 1013.8
20240525064436 45 182 5.0 10.0 0.00 0.00 0.00 47 1013.9
20240525063930 46 171 6.0 11.0 0.00 0.00 0.00 47 1014.0
20240525063649 46 175 7.0 11.0 0.00 0.00 0.00 46 1013.9
20240525063144 46 176 7.0 11.0 0.00 0.00 0.00 46 1014.0
20240525062411 46 157 6.0 12.0 0.00 0.00 0.00 46 1014.2
20240525061906 46 156 7.0 12.0 0.00 0.00 0.00 46 1014.0
20240525061627 46 154 7.0 14.0 0.00 0.00 0.00 45 1014.2
20240525060853 46 159 7.0 14.0 0.00 0.00 0.00 44 1014.3
20240525060348 46 161 8.0 14.0 0.00 0.00 0.00 44 1014.4
20240525055845 46 166 8.0 14.0 0.00 0.00 0.00 44 1014.4
20240525055338 46 162 9.0 14.0 0.00 0.00 0.00 44 1014.5
20240525054831 46 156 9.0 14.0 0.00 0.00 0.00 44 1014.5
20240525054326 46 173 7.0 12.0 0.00 0.00 0.00 45 1014.8
20240525053820 46 175 7.0 12.0 0.00 0.00 0.00 44 1014.8
20240525053314 46 161 7.0 11.0 0.00 0.00 0.00 44 1014.8
20240525053030 46 168 7.0 12.0 0.00 0.00 0.00 44 1014.9
20240525052302 46 162 7.0 12.0 0.00 0.00 0.00 44 1014.9
20240525052016 45 200 8.0 13.0 0.00 0.00 0.00 44 1015.2
20240525051507 45 180 8.0 13.0 0.00 0.00 0.00 44 1015.3
20240525050744 45 192 8.0 12.0 0.00 0.00 0.00 45 1015.2
20240525050458 45 175 8.0 12.0 0.00 0.00 0.00 44 1015.3
20240525045732 45 182 6.0 11.0 0.00 0.00 0.00 45 1015.3
20240525045226 45 169 5.0 10.0 0.00 0.00 0.00 45 1015.7
20240525045206 45 194 5.0 8.0 0.00 0.00 0.00 45 1015.7
20240525044436 45 237 5.0 10.0 0.00 0.00 0.00 46 1015.5
20240525043930 45 190 4.0 10.0 0.00 0.00 0.00 46 1015.6
20240525043203 45 153 6.0 23.0 0.00 0.00 0.00 47 1015.7
20240525042655 46 227 12.0 23.0 0.00 0.00 0.00 47 1015.3
20240525042150 46 229 14.0 25.0 0.00 0.00 0.00 47 1015.3
20240525041644 46 240 15.0 25.0 0.00 0.00 0.00 47 1015.2
20240525041138 46 234 15.0 24.0 0.00 0.00 0.00 46 1015.1
20240525040632 46 259 15.0 27.0 0.00 0.00 0.00 46 1015.1
20240525040126 46 261 16.0 27.0 0.00 0.00 0.00 46 1015.1
20240525035619 46 261 16.0 25.0 0.00 0.00 0.00 46 1015.2
20240525035114 46 289 15.0 23.0 0.00 0.00 0.00 46 1015.2
20240525034607 46 254 13.0 21.0 0.00 0.00 0.00 46 1015.2
20240525034102 46 228 12.0 19.0 0.00 0.00 0.00 46 1015.2
20240525034040 45 252 12.0 21.0 0.00 0.00 0.00 46 1015.2
20240525033050 45 235 11.0 21.0 0.00 0.00 0.00 46 1015.2
20240525032544 45 223 10.0 18.0 0.00 0.00 0.00 46 1015.1
20240525032038 45 247 11.0 21.0 0.00 0.00 0.00 46 1015.1
20240525031532 45 227 11.0 21.0 0.00 0.00 0.00 46 1014.9
20240525031026 45 256 10.0 18.0 0.00 0.00 0.00 45 1014.8
20240525030520 46 246 8.0 13.0 0.00 0.00 0.00 45 1014.8
20240525030014 46 251 9.0 16.0 0.00 0.00 0.00 45 1014.8
20240525025508 46 237 9.0 16.0 0.00 0.00 0.00 45 1014.8
20240525025002 46 248 9.0 19.0 0.00 0.00 0.00 44 1014.9
20240525024456 46 288 9.0 19.0 0.00 0.00 0.00 44 1014.9
20240525024214 46 270 8.0 17.0 0.00 0.00 0.00 44 1014.9
20240525023704 47 244 8.0 17.0 0.00 0.00 0.00 43 1014.9
20240525022938 47 261 8.0 15.0 0.00 0.00 0.00 43 1014.9
20240525022431 47 242 7.0 15.0 0.00 0.00 0.00 43 1015.1
20240525021926 47 295 9.0 15.0 0.00 0.00 0.00 42 1015.2
20240525021425 47 294 12.0 23.0 0.00 0.00 0.00 41 1015.1
20240525021144 48 258 13.0 23.0 0.00 0.00 0.00 40 1015.1
20240525020425 48 226 11.0 23.0 0.00 0.00 0.00 39 1014.9
20240525015924 48 288 12.0 24.0 0.00 0.00 0.00 38 1015.1
20240525015424 49 258 13.0 24.0 0.00 0.00 0.00 38 1015.1
20240525015154 49 255 13.0 24.0 0.00 0.00 0.00 37 1015.2
20240525014425 49 260 13.0 24.0 0.00 0.00 0.00 36 1015.1
20240525014145 50 259 12.0 25.0 0.00 0.00 0.00 35 1015.3
20240525013426 50 246 13.0 25.0 0.00 0.00 0.00 34 1015.3
20240525012921 51 288 12.0 20.0 0.00 0.00 0.00 33 1015.3
20240525012420 51 288 10.0 18.0 0.00 0.00 0.00 32 1015.2
20240525012403 51 0 9.0 17.0 0.00 0.00 0.00 31 1015.3
20240525011639 52 243 10.0 18.0 0.00 0.00 0.00 30 1015.2
20240525010921 52 245 11.0 18.0 0.00 0.00 0.00 29 1015.2
20240525010422 53 250 12.0 21.0 0.00 0.00 0.00 28 1015.2
20240525005921 53 252 11.0 21.0 0.00 0.00 0.00 28 1014.9
20240525005420 53 297 9.0 18.0 0.00 0.00 0.00 28 1015.1
20240525004922 53 244 9.0 18.0 0.00 0.00 0.00 28 1014.9
20240525004415 54 340 10.0 16.0 0.00 0.00 0.00 27 1014.9
20240525004132 54 247 9.0 19.0 0.00 0.00 0.00 27 1014.9
20240525003625 54 319 8.0 19.0 0.00 0.00 0.00 26 1014.9
20240525002857 54 287 12.0 25.0 0.00 0.00 0.00 26 1014.9
20240525002612 54 261 13.0 25.0 0.00 0.00 0.00 25 1014.9
20240525001845 55 0 10.0 22.0 0.00 0.00 0.00 25 1014.9
20240525001339 55 252 12.0 22.0 0.00 0.00 0.00 24 1014.9
20240525000834 55 284 12.0 22.0 0.00 0.00 0.00 24 1014.9
20240525000326 55 284 12.0 22.0 0.00 0.00 0.00 24 1014.9
20240524235821 56 284 10.0 21.0 0.00 0.00 0.00 23 1014.9
20240524235316 56 223 9.0 23.0 0.00 0.00 0.00 24 1015.1
20240524234809 56 305 10.0 23.0 0.00 0.00 0.00 23 1015.2
20240524234303 57 0 13.0 24.0 0.00 0.00 0.00 23 1015.2
20240524233756 58 277 11.0 24.0 0.00 0.00 0.00 22 1015.1
20240524233251 58 281 10.0 21.0 0.00 0.00 0.00 21 1015.2
20240524232744 59 219 10.0 21.0 0.00 0.00 0.00 20 1015.1
20240524232237 59 229 9.0 23.0 0.00 0.00 0.00 20 1015.1
20240524231730 59 284 11.0 23.0 0.00 0.00 0.00 19 1015.1
20240524231225 59 223 12.0 26.0 0.00 0.00 0.00 20 1015.2
20240524230721 60 310 12.0 26.0 0.00 0.00 0.00 19 1015.2
20240524230444 60 224 11.0 25.0 0.00 0.00 0.00 19 1015.1
20240524225720 60 291 10.0 25.0 0.00 0.00 0.00 19 1015.1
20240524225220 60 292 9.0 21.0 0.00 0.00 0.00 19 1014.9
20240524224720 60 306 12.0 21.0 0.00 0.00 0.00 18 1015.1
20240524224220 60 217 13.0 21.0 0.00 0.00 0.00 19 1015.1
20240524223952 61 259 11.0 21.0 0.00 0.00 0.00 17 1015.1
20240524223220 61 255 12.0 26.0 0.00 0.00 0.00 19 1015.1
20240524223202 61 288 13.0 26.0 0.00 0.00 0.00 17 1015.3
20240524222443 61 300 10.0 20.0 0.00 0.00 0.00 18 1015.2
20240524221721 61 285 10.0 20.0 0.00 0.00 0.00 18 1015.1
20240524221220 61 223 10.0 20.0 0.00 0.00 0.00 18 1015.2
20240524220720 61 220 12.0 30.0 0.00 0.00 0.00 18 1015.1
20240524220220 61 298 14.0 30.0 0.00 0.00 0.00 17 1015.1
20240524215720 61 257 13.0 24.0 0.00 0.00 0.00 17 1015.1
20240524215222 61 281 12.0 24.0 0.00 0.00 0.00 18 1015.1
20240524214721 60 240 11.0 19.0 0.00 0.00 0.00 18 1015.2
20240524214215 60 282 11.0 25.0 0.00 0.00 0.00 19 1015.1
20240524213709 60 306 11.0 25.0 0.00 0.00 0.00 18 1015.1
20240524213203 60 307 13.0 25.0 0.00 0.00 0.00 17 1015.1
20240524212657 61 288 13.0 26.0 0.00 0.00 0.00 18 1015.2
20240524212154 61 292 13.0 26.0 0.00 0.00 0.00 16 1015.2
20240524211654 61 309 12.0 28.0 0.00 0.00 0.00 16 1015.3
20240524211154 62 341 11.0 28.0 0.00 0.00 0.00 16 1015.1
20240524210654 62 223 11.0 24.0 0.00 0.00 0.00 18 1015.2